Location: Peterborough
(44.3091°N, 78.3197°W)
Time: 14:42:42
(UTC-04:00)

Courier 1B - Pass Details

Date: 28 March 2023
Orbit: 962 x 1209 km, 28.3° (Epoch: 27 May)

Event Time Altitude Azimuth Distance (km) Brightness Sun altitude
Rises 20:43:00 0° 251° (WSW) 3,881 11.6 -12.7°
Reaches altitude 10° 20:48:25 10° 218° (SW) 2,850 10.2 -13.6°
Maximum altitude 20:50:06 11° 203° (SSW) 2,756 9.9 -13.9°
Drops below altitude 10° 20:51:47 10° 189° (S) 2,805 9.8 -14.1°
Enters shadow 20:55:39 - 161° (SSE) 3,391 10.0 -14.8°
